FW2295 Weather Reports


time (UTC)temp
F
wind
direction
speed
knots
gust
knots
rain 1hr
in
rain 24hr
in
rain mn
in
humidity
%
barometer
mb
20260504203005 61 320 11.3 22.6 0.00 0.00 0.00 41 1005.7
20260504201959 61 276 9.6 22.6 0.00 0.00 0.00 40 1005.7
20260504195936 62 281 9.6 18.2 0.00 0.00 0.00 41 1005.5
20260504194902 61 287 9.6 18.2 0.00 0.00 0.00 37 1005.4
20260504192822 61 354 9.6 22.6 0.00 0.00 0.00 37 1005.2
20260504191753 61 341 9.6 20.9 0.00 0.00 0.00 37 1005.2
20260504190818 62 318 10.4 20.9 0.00 0.00 0.00 36 1005.2
20260504185838 63 289 10.4 20.9 0.00 0.00 0.00 36 1005.1
20260504184836 64 318 10.4 21.7 0.00 0.00 0.00 37 1005.0
20260504183854 63 8 9.6 23.5 0.00 0.00 0.00 38 1004.7
20260504182841 63 309 12.2 23.5 0.00 0.00 0.00 39 1004.8
20260504181851 63 313 9.6 21.7 0.00 0.00 0.00 38 1004.5
20260504180838 63 310 11.3 21.7 0.00 0.00 0.00 39 1004.5
20260504175849 64 308 10.4 21.7 0.00 0.00 0.00 36 1004.5
20260504174819 64 300 8.7 20.9 0.00 0.00 0.00 39 1004.3
20260504173813 64 316 8.7 17.4 0.00 0.00 0.00 43 1004.3
20260504172837 63 319 9.6 20.9 0.00 0.00 0.00 44 1004.1
20260504171834 63 287 8.7 20.9 0.00 0.00 0.00 44 1003.9
20260504170833 63 299 7.8 14.8 0.00 0.00 0.00 43 1003.8
20260504150614 60 312 7.0 20.0 0.00 0.00 0.00 44 1002.9
20260504140629 59 297 6.1 13.9 0.00 0.00 0.00 59 1002.4
20260504130545 57 274 7.0 13.0 0.00 0.00 0.00 61 1002.2
20260504110640 51 215 1.7 8.7 0.00 0.00 0.00 69 1000.6
20260504100457 48 223 0.9 6.1 0.00 0.00 0.00 73 1001.7
20260504081343 47 162 0.0 2.6 0.00 0.00 0.00 71 1002.6
20260504080325 47 178 0.0 1.7 0.00 0.00 0.00 71 1002.7
20260504070329 48 186 0.0 3.5 0.00 0.00 0.00 69 1003.8
20260504050130 52 164 0.0 1.7 0.00 0.00 0.00 61 1005.8
20260504045102 52 190 0.0 3.5 0.00 0.00 0.00 60 1005.7
20260504044120 52 177 0.0 2.6 0.00 0.00 0.00 60 1005.9
20260504043049 53 169 0.0 2.6 0.00 0.00 0.00 59 1006.0
20260504042106 53 168 0.0 2.6 0.00 0.00 0.00 59 1006.0
20260504040021 54 177 0.0 2.6 0.00 0.00 0.00 57 1006.4
20260504035004 54 181 0.0 1.7 0.00 0.00 0.00 56 1006.7
20260504032949 55 191 0.0 1.7 0.00 0.00 0.00 55 1007.1
20260504031949 55 193 0.0 1.7 0.00 0.00 0.00 54 1007.3
20260504030918 55 193 0.0 1.7 0.00 0.00 0.00 51 1007.5
20260504025934 56 218 0.0 1.7 0.00 0.00 0.00 51 1007.5
20260504024917 56 222 0.0 2.6 0.00 0.00 0.00 52 1007.7
20260504023929 57 221 0.0 0.9 0.00 0.00 0.00 49 1007.7
20260504022920 58 221 0.0 0.9 0.00 0.00 0.00 48 1007.6
20260504021943 59 221 0.0 2.6 0.00 0.00 0.00 46 1007.6
20260504020909 60 255 0.9 2.6 0.00 0.00 0.00 44 1007.5
20260504015838 61 222 0.9 2.6 0.00 0.00 0.00 41 1007.3
20260504013812 64 210 0.0 3.5 0.00 0.00 0.00 38 1007.5
20260504012822 65 210 0.9 5.2 0.00 0.00 0.00 36 1007.4
20260504011755 66 241 2.6 7.8 0.00 0.00 0.00 35 1007.6
20260504010746 67 257 2.6 11.3 0.00 0.00 0.00 35 1007.5
20260504005713 68 269 3.5 11.3 0.00 0.00 0.00 32 1007.5
20260504004643 69 241 3.5 11.3 0.00 0.00 0.00 30 1007.7
20260504002559 70 226 4.3 12.2 0.00 0.00 0.00 31 1007.7
20260504000459 71 276 5.2 10.4 0.00 0.00 0.00 29 1007.9
20260503235450 71 314 5.2 10.4 0.00 0.00 0.00 28 1008.0
20260503233506 72 258 6.1 12.2 0.00 0.00 0.00 27 1008.0
20260503232509 72 233 4.3 13.0 0.00 0.00 0.00 29 1008.0
20260503231504 72 252 5.2 13.0 0.00 0.00 0.00 29 1008.1
20260503225500 71 354 5.2 12.2 0.00 0.00 0.00 30 1008.2
20260503224452 71 279 6.1 11.3 0.00 0.00 0.00 30 1008.3
20260503222507 72 258 6.1 14.8 0.00 0.00 0.00 32 1008.4
20260503221506 71 264 4.3 14.8 0.00 0.00 0.00 31 1008.6
20260503220449 71 299 3.5 8.7 0.00 0.00 0.00 34 1008.6
20260503215425 71 287 4.3 8.7 0.00 0.00 0.00 36 1008.8
20260503214437 71 277 3.5 9.6 0.00 0.00 0.00 36 1008.9
20260503212404 71 328 4.3 9.6 0.00 0.00 0.00 36 1009.2
20260503210401 71 293 5.2 12.2 0.00 0.00 0.00 34 1009.4
20260503205349 71 4 7.0 15.6 0.00 0.00 0.00 33 1009.6
20260503204356 71 284 5.2 15.6 0.00 0.00 0.00 33 1009.7
20260503203349 70 301 6.1 12.2 0.00 0.00 0.00 35 1009.9